Tracking 30918 objects as of 2-Jul-2025
HD Live streaming from Space Station
objects crossing your sky now

COSMOS 2251 DEB

Track COSMOS 2251 DEB now!
10-day predictions


NORAD ID: 33798
Int'l Code: 1993-036AP
Perigee: 685.1 km
Apogee: 817.4 km
Inclination: 74.0 °
Period: 99.7 minutes
Semi major axis: 7122 km
RCS: 0.048 m2 (small)
Launch date: June 16, 1993
Source: Commonwealth of Independent States (former USSR) (CIS)
Launch site: PLESETSK MISSILE AND SPACE COMPLEX (PKMTR)

Note: This is SATELLITE DEBRIS
Your satellite tracking list
Your tracking list is empty




NASA's NSSDC Master Catalog

Two Line Element Set (TLE):
1 33798U 93036AP  25182.83715917  .00000242  00000-0  74834-4 0  9998
2 33798  74.0299  81.1214 0092928 242.6194 186.2977 14.44368869862276
Source of the keplerian elements: AFSPC